Content
SEND FEEDBACK

Daily
Averages
Monthly
Summary
United States of America

EL JEBEL, COLORADO


Home > North America > United States > Colorado
Elevation: 6808 feet     Latitude: 39 34N     Longitude: 107 14W

WEATHER
 
SELECT A DAY
Number of Records: 377,114;   Date Range: 1/1/95 - 8/12/14
 
SHARE

PRINT THIS DATA

[ ← Previous Day ]
WEATHER ALMANAC - FEBRUARY 13, 2013
[ Next Day → ]
[ °C ]   °F
Weather ElementAverageHighLow
Temperature23.2 °F35.6 °F (2:50 pm)17.6 °F (6:35 am)
Dewpoint14.9 °F19.4 °F (3:50 pm)12.2 °F (12:35 am)
Humidity71.8 %86 % (10:50 pm)48 % (2:50 pm)
Barometer30.14 in30.19 in (12:35 am)30.06 in (2:50 pm)
Wind Speed3.2 mph16.1 mph (2:50 pm)
Wind Gust18.4 mph (3:50 pm)
Weather ElementAverage
Visibility10 mi
Wind DirectionENE (58.2 °)

Weather ElementTotal
Precipitation---
Heating Degree Days38.4 (Base 65)
Averaged from 38 records on February 13, 2013
WEATHER CONDITIONS BREAKOUT
WIND DIRECTION BREAKOUT
WEATHER BY HOUR - FEBRUARY 13, 2013
[ °C ]   °F
Local TimeTemperatureDewpointHumidityBarometerVisibilityWind DirectionWind SpeedGust SpeedPrecipitationEventsConditions
12:35 AM19.4 °F12.2 °F74 %30.19 in10.0 miCalm
12:55 AM19.4 °F12.2 °F74 %30.19 in10.0 miEast (100°)5.8 mph
1:15 AM21.2 °F12.2 °F68 %30.18 in10.0 miCalm
1:35 AM19.4 °F12.2 °F74 %30.18 in10.0 miCalm
1:55 AM19.4 °F12.2 °F74 %30.17 in10.0 miESE (110°)3.5 mph
2:15 AM19.4 °F14.0 °F80 %30.18 in10.0 miCalm
2:35 AM19.4 °F12.2 °F74 %30.17 in10.0 miCalm
2:55 AM19.4 °F12.2 °F74 %30.17 in10.0 miCalm
3:15 AM19.4 °F12.2 °F74 %30.16 in10.0 miCalm
3:35 AM19.4 °F14.0 °F80 %30.16 in10.0 miCalm
3:55 AM19.4 °F12.2 °F74 %30.17 in10.0 miSSE (150°)3.5 mph
4:15 AM21.2 °F14.0 °F74 %30.17 in10.0 miCalm
4:35 AM19.4 °F14.0 °F80 %30.17 in10.0 miCalm
4:55 AM19.4 °F14.0 °F80 %30.17 in10.0 miCalm
5:15 AM19.4 °F14.0 °F80 %30.18 in10.0 miCalm
5:35 AM19.4 °F14.0 °F80 %30.17 in10.0 miCalm
5:55 AM19.4 °F12.2 °F74 %30.16 in10.0 miCalm
6:15 AM19.4 °F12.2 °F74 %30.16 in10.0 miCalm
6:35 AM17.6 °F12.2 °F79 %30.15 in10.0 miSSE (160°)3.5 mph
6:50 AM17.6 °F12.2 °F79 %30.16 in10.0 miCalmMostly Cloudy
7:50 AM17.6 °F12.2 °F79 %30.18 in10.0 miENE (60°)6.9 mphMostly Cloudy
8:50 AM19.4 °F14.0 °F80 %30.19 in10.0 miCalmMostly Cloudy
9:50 AM23.0 °F14.0 °F68 %30.18 in10.0 miCalmScattered Clouds
11:50 AM30.2 °F17.6 °F60 %30.14 in10.0 miCalmMostly Cloudy
12:50 PM30.2 °F15.8 °F55 %30.09 in10.0 miCalmScattered Clouds
1:50 PM33.8 °F17.6 °F52 %30.08 in10.0 miSW (230°)12.7 mphScattered Clouds
2:50 PM35.6 °F17.6 °F48 %30.06 in10.0 miSSW (210°)16.1 mphScattered Clouds
3:50 PM35.6 °F19.4 °F52 %30.07 in10.0 miSSW (210°)12.7 mph18.4 mphScattered Clouds
4:50 PM35.6 °F17.6 °F48 %30.06 in10.0 miSSW (210°)11.5 mphScattered Clouds
5:52 PM33.8 °F17.6 °F52 %30.08 in10.0 miWest (260°)3.5 mphMostly Cloudy
6:50 PM32.0 °F19.4 °F60 %30.10 in10.0 miCalmScattered Clouds
7:50 PM28.4 °F19.4 °F69 %30.11 in10.0 miVariable5.8 mphScattered Clouds
8:50 PM24.8 °F19.4 °F80 %30.11 in10.0 miESE (110°)4.6 mphMostly Cloudy
9:50 PM23.0 °F17.6 °F80 %30.11 in10.0 miVariable6.9 mphMostly Cloudy
10:50 PM21.2 °F17.6 °F86 %30.11 in10.0 miENE (70°)6.9 mphScattered Clouds
11:15 PM23.0 °F17.6 °F80 %30.11 in10.0 miESE (110°)6.9 mph
11:35 PM23.0 °F17.6 °F80 %30.11 in10.0 miESE (120°)5.8 mph
11:55 PM23.0 °F17.6 °F80 %30.11 in10.0 miEast (100°)5.8 mph
Hourly data recorded from KEGE, located miles away from El Jebel, Colorado







STORIES FROM OUR PARTNERS